National Weather Service Hourly Weather Roundup
NOAA NWS Hourly Roundups by Site
NOAA NWS Hourly Roundups by Site
Regional Weather Roundup for Sacramento, CA

To Select Another Site Choose from List

Select Site:  

377
ASUS46 KSTO 161615
RWRCA

NORTHERN AND CENTRAL CA REGIONAL WEATHER ROUNDUP
NATIONAL WEATHER SERVICE SACRAMENTO CA
900 AM PDT THU JUL 16 2020

NOTE: FAIR INDICATES FEW OR NO CLOUDS BELOW 12,000 FEET WITH NO
SIGNIFICANT WEATHER AND/OR OBSTRUCTIONS TO VISIBILITY.

CAZ001-003-161700-
NORTHWEST AREA

CITY           SKY/WX    TMP DP  RH WIND       PRES   REMARKS
CRESCENT CITY  FOG       55  54  96 SW5       29.93S VSB 3/4
UKIAH          SUNNY     65  52  62 CALM      29.90R
$$

CAZ006-505>513-161700-
BAY AREA

CITY           SKY/WX    TMP DP  RH WIND       PRES   REMARKS
SANTA ROSA     CLOUDY    58  54  86 CALM      29.92S
SAN RAFAEL     N/A       MM  MM  MM MISG
NAPA           CLOUDY    61  54  77 W10       29.91R
CONCORD        SUNNY     64  53  67 W8        29.90R
OAKLAND CITY   N/A       59  MM  MM MISG
OAKLAND        CLOUDY    63  55  75 W9        29.92R
SAN FRAN CITY  N/A       57  MM  86 MISG
SAN FRAN ARPT  PTSUNNY   61  53  75 N5        29.91R
LIVERMORE      SUNNY     64  55  72 CALM      29.90R
HAYWARD        CLOUDY    63  54  72 CALM      29.91R
SAN JOSE ARPT  PTSUNNY   63  53  70 CALM      29.91R
$$
CAZ034-037-514>518-161700-
CENTRAL COAST

CITY           SKY/WX    TMP DP  RH WIND       PRES   REMARKS
WATSONVILLE    CLOUDY    58  54  86 W6        29.94R
SALINAS        CLOUDY    61  54  77 CALM      29.93R
MONTEREY       CLOUDY    59  54  83 CALM      29.94R
SAN LUIS OBISP CLOUDY    60  54  80 CALM      29.94R
SANTA MARIA    CLOUDY    59  54  83 CALM      29.95R HAZE
$$
CAZ015-016-161700-
NORTHERN SACRAMENTO VALLEY

CITY           SKY/WX    TMP DP  RH WIND       PRES   REMARKS
REDDING        SUNNY     80  59  48 CALM      29.83F
RED BLUFF      SUNNY     78  58  49 SE3       29.85S
OROVILLE       SUNNY     73  54  51 VRB3      29.86S
$$
CAZ016>018-161700-
SOUTHERN SACRAMENTO VALLEY

CITY           SKY/WX    TMP DP  RH WIND       PRES   REMARKS
AUBURN         SUNNY     75  52  43 CALM      29.90R
BEALE AFB      SUNNY     72  55  55 SW6       29.84S
LINCOLN        FAIR      70  54  56 CALM      29.85S
MARYSVILLE     SUNNY     69  54  58 S9        29.86R
SAC INTL ARPT  SUNNY     66  54  65 SE6       29.85R
MATHER AIRPORT SUNNY     66  55  68 S7        29.86R
DOWNTOWN SAC   N/A       69  MM  MM MISG
SAC EXEC ARPT  SUNNY     67  55  65 SW7       29.86R
VACAVILLE      SUNNY     70  53  54 VRB5      29.87R
TRAVIS AFB     SUNNY     65  54  65 SW17      29.87R
$$
CAZ019>021-161700-
SAN JOAQUIN VALLEY

CITY           SKY/WX    TMP DP  RH WIND       PRES   REMARKS
STOCKTON       SUNNY     70  55  59 N6        29.87R
MODESTO        SUNNY     70  53  54 NW10      29.85S
MERCED         SUNNY     73  55  53 NW9       29.84S
LEMOORE        MOSUNNY   77  54  44 NW8       29.86R
FRESNO         SUNNY     77  56  48 W3        29.85R
HANFORD        SUNNY     76  58  53 VRB3      29.86R
PORTERVILLE    SUNNY     78  54  43 SW6       29.87S
BAKERSFIELD    SUNNY     80  50  34 W3        29.86S
$$
CAZ011-012-071-161700-
NORTHERN MOUNTAINS

CITY           SKY/WX    TMP DP  RH WIND       PRES   REMARKS
YREKA          SUNNY     77  49  37 N7        30.04S
MOUNT SHASTA   SUNNY     75  51  43 VRB3      30.05S
$$
CAZ011-012-071-161700-
SIERRA NEVADA MTNS

CITY           SKY/WX    TMP DP  RH WIND       PRES   REMARKS
BLUE CANYON    SUNNY     74  54  49 CALM      30.12R
TRUCKEE        MOSUNNY   64  48  55 N3        30.19S
TAHOE VLY ARPT SUNNY     66  45  46 CALM      30.19S
MAMMOTH LAKES  FAIR      72  37  28 SE3       30.27S
$$



 

View Past Reports for Sacramento, CA.

Products Courtesy of NOAA-NWS
NWS Information Parsing Script by Ken True at Saratoga Weather - Script by SE Lincoln Weather.

powered by Cumulus v1.9.3 (1059)
Ambient Weather VWS v14.00
Top Website Map Copyright © 2007 - 2020 Foresthillweather.com Never base important decisions on this or any weather information obtained from the Internet